Regional Weather Roundup
Issued by NWS

Home | Current Version | Previous Version | Graphics & Text | Print | Product List | Glossary On
Versions: 1 2 3 4 5 6 7 8 9 10 11 12 13 14 15 16 17 18 19 20 21 22 23 24 25 26 27 28 29 30 31 32 33 34 35 36 37 38 39 40 41 42 43 44 45 46 47 48 49 50
000
ASUS45 KBOI 011010
RWRID
WEATHER ROUNDUP FOR IDAHO
NATIONAL WEATHER SERVICE BOISE ID
400 AM MDT MON SEP 01 2014

NOTE: "FAIR" INDICATES FEW OR NO CLOUDS BELOW 12000 FEET
WITH NO SIGNIFICANT WEATHER AND/OR OBSTRUCTIONS TO VISIBILITY

IDZ012-014-011100-
SOUTHWEST IDAHO


CITY           SKY/WX    TMP DP  RH WIND       PRES   REMARKS
BOISE          FAIR      55  42  61 S3        30.02R
CALDWELL       FAIR      52  37  58 NW8       30.04R
MOUNTAIN HOME  FAIR      51  42  72 W8        30.02R
$$

IDZ016-017-011100-
SOUTHCENTRAL IDAHO


CITY           SKY/WX    TMP DP  RH WIND       PRES   REMARKS
BURLEY         FAIR      49  41  74 SW8       30.02S
JEROME         FAIR      51  40  65 SW3       30.04R
TWIN FALLS     FAIR      54  41  61 S14       30.04R
$$

IDZ019>023-011100-
SOUTHEAST IDAHO


CITY           SKY/WX    TMP DP  RH WIND       PRES   REMARKS
IDAHO FALLS    PTCLDY    52  40  63 SW13      30.01R
POCATELLO      CLEAR     56  35  45 SW13      30.03R
REXBURG        PTCLDY    51  39  63 S6        30.01R
$$

IDZ006-010-011-018-031-032-011100-
CENTRAL IDAHO MOUNTAINS


CITY           SKY/WX    TMP DP  RH WIND       PRES   REMARKS
MCCALL         FAIR      40  34  79 CALM      30.07R
HAILEY         FAIR      46  34  61 N7        30.07R
STANLEY          N/A     33  30  88 CALM      30.13S
SALMON         FAIR      48  41  76 SE3       30.03S
CHALLIS        FAIR      48  37  65 CALM      30.05S
$$

IDZ002-004-006-007-026-011100-
NORTHERN IDAHO


CITY           SKY/WX    TMP DP  RH WIND       PRES   REMARKS
LEWISTON       NOT AVBL
LOWELL           N/A     52  48  86 NW3       30.07R
COEUR D`ALENE  FAIR      54  43  66 S7        29.99S
MULLAN PASS    FAIR      41  36  82 VRB6      30.07S
$$



USA.gov is the U.S. government's official web portal to all federal, state and local government web resources and services.